| time (UTC) | temp C | wind direction | speed KPH | gust KPH | rain 1hr cm | rain 24hr cm | rain mn cm | humidity % | barometer mb |
| 20260503013017 | 13 | 176 | 1.6 | 0.0 | 0.00 | 0.00 | 0.00 | 43 | 1005.2 |
| 20260503011526 | 14 | 227 | 1.6 | 0.0 | 0.00 | 0.00 | 0.00 | 38 | 1004.7 |
| 20260503010015 | 15 | 232 | 1.6 | 0.0 | 0.00 | 0.00 | 0.00 | 32 | 1004.2 |
| 20260503004514 | 16 | 208 | 3.2 | 0.0 | 0.00 | 0.00 | 0.00 | 32 | 1004.4 |
| 20260503003014 | 16 | 200 | 3.2 | 0.0 | 0.00 | 0.00 | 0.00 | 27 | 1004.5 |
| 20260503001512 | 16 | 144 | 3.2 | 0.0 | 0.00 | 0.00 | 0.00 | 27 | 1004.5 |
| 20260503000011 | 16 | 203 | 3.2 | 0.0 | 0.00 | 0.00 | 0.00 | 27 | 1004.5 |
| 20260502234528 | 16 | 222 | 3.2 | 0.0 | 0.00 | 0.00 | 0.00 | 27 | 1004.5 |
| 20260502233010 | 16 | 205 | 3.2 | 0.0 | 0.00 | 0.00 | 0.00 | 26 | 1004.7 |
| 20260502231509 | 16 | 257 | 3.2 | 0.0 | 0.00 | 0.00 | 0.00 | 29 | 1004.6 |
| 20260502230008 | 16 | 145 | 3.2 | 0.0 | 0.00 | 0.00 | 0.00 | 25 | 1004.2 |
| 20260502224504 | 16 | 237 | 3.2 | 0.0 | 0.00 | 0.00 | 0.00 | 29 | 1004.3 |
| 20260502223005 | 16 | 114 | 3.2 | 0.0 | 0.00 | 0.00 | 0.00 | 22 | 1004.8 |
| 20260502221502 | 16 | 270 | 3.2 | 0.0 | 0.00 | 0.00 | 0.00 | 25 | 1005.5 |
| 20260502220004 | 16 | 203 | 3.2 | 0.0 | 0.00 | 0.00 | 0.00 | 23 | 1005.4 |
| 20260502214602 | 17 | 272 | 3.2 | 0.0 | 0.00 | 0.00 | 0.00 | 23 | 1005.5 |
| 20260502213102 | 17 | 232 | 1.6 | 0.0 | 0.00 | 0.00 | 0.00 | 20 | 1005.7 |
| 20260502211554 | 16 | 305 | 1.6 | 0.0 | 0.00 | 0.00 | 0.00 | 19 | 1005.6 |
| 20260502210101 | 17 | 270 | 1.6 | 0.0 | 0.00 | 0.00 | 0.00 | 19 | 1005.9 |
| 20260502204604 | 17 | 296 | 1.6 | 0.0 | 0.00 | 0.00 | 0.00 | 18 | 1006.1 |
| 20260502203102 | 17 | 278 | 1.6 | 0.0 | 0.00 | 0.00 | 0.00 | 19 | 1006.4 |
| 20260502201550 | 16 | 223 | 1.6 | 0.0 | 0.00 | 0.00 | 0.00 | 20 | 1006.3 |
| 20260502200050 | 16 | 308 | 3.2 | 0.0 | 0.00 | 0.00 | 0.00 | 19 | 1006.5 |
| 20260502194553 | 16 | 224 | 3.2 | 0.0 | 0.00 | 0.00 | 0.00 | 20 | 1006.7 |
| 20260502193046 | 17 | 251 | 1.6 | 0.0 | 0.00 | 0.00 | 0.00 | 22 | 1006.8 |
| 20260502191543 | 16 | 226 | 0.0 | 0.0 | 0.00 | 0.00 | 0.00 | 21 | 1006.8 |
| 20260502190039 | 16 | 110 | 3.2 | 0.0 | 0.00 | 0.00 | 0.00 | 20 | 1006.8 |
| 20260502184540 | 15 | 119 | 1.6 | 0.0 | 0.00 | 0.00 | 0.00 | 21 | 1007.6 |
| 20260502183036 | 15 | 234 | 1.6 | 0.0 | 0.00 | 0.00 | 0.00 | 20 | 1007.7 |
| 20260502181537 | 15 | 200 | 3.2 | 0.0 | 0.00 | 0.00 | 0.00 | 20 | 1007.8 |
| 20260502163044 | 13 | 198 | 0.0 | 0.0 | 0.00 | 0.00 | 0.00 | 22 | 1007.6 |
| 20260502161521 | 13 | 121 | 0.0 | 0.0 | 0.00 | 0.00 | 0.00 | 22 | 1008.3 |
| 20260502151509 | 10 | 186 | 0.0 | 0.0 | 0.00 | 0.00 | 0.00 | 28 | 1008.5 |
| 20260502130104 | 5 | 186 | 0.0 | 0.0 | 0.00 | 0.00 | 0.00 | 38 | 1006.6 |
| 20260502123058 | 5 | 186 | 0.0 | 0.0 | 0.00 | 0.00 | 0.00 | 34 | 1006.4 |
| 20260502121550 | 5 | 185 | 0.0 | 0.0 | 0.00 | 0.00 | 0.00 | 35 | 1006.4 |
| 20260502114550 | 6 | 185 | 0.0 | 0.0 | 0.00 | 0.00 | 0.00 | 41 | 1006.0 |
| 20260502113050 | 6 | 185 | 0.0 | 0.0 | 0.00 | 0.00 | 0.00 | 38 | 1006.0 |
| 20260502111548 | 5 | 185 | 0.0 | 0.0 | 0.00 | 0.00 | 0.00 | 40 | 1005.9 |
| 20260502110044 | 5 | 185 | 0.0 | 0.0 | 0.00 | 0.00 | 0.00 | 40 | 1005.9 |
| 20260502104543 | 5 | 185 | 0.0 | 0.0 | 0.00 | 0.00 | 0.00 | 41 | 1005.9 |
| 20260502103044 | 6 | 185 | 0.0 | 0.0 | 0.00 | 0.00 | 0.00 | 38 | 1005.8 |
| 20260502101543 | 6 | 185 | 0.0 | 0.0 | 0.00 | 0.00 | 0.00 | 39 | 1005.9 |
| 20260502071530 | 6 | 185 | 0.0 | 0.0 | 0.00 | 0.00 | 0.00 | 38 | 1006.9 |
| 20260502070039 | 6 | 185 | 0.0 | 0.0 | 0.00 | 0.00 | 0.00 | 39 | 1007.2 |
| 20260502064538 | 6 | 185 | 0.0 | 0.0 | 0.00 | 0.00 | 0.00 | 41 | 1007.2 |
| 20260502063029 | 6 | 185 | 0.0 | 0.0 | 0.00 | 0.00 | 0.00 | 45 | 1006.6 |
| 20260502061526 | 6 | 185 | 0.0 | 0.0 | 0.00 | 0.00 | 0.00 | 45 | 1006.6 |
| 20260502060029 | 6 | 185 | 0.0 | 0.0 | 0.00 | 0.00 | 0.00 | 43 | 1007.7 |
| 20260502054526 | 7 | 185 | 0.0 | 0.0 | 0.00 | 0.00 | 0.00 | 43 | 1007.6 |
| 20260502053025 | 7 | 185 | 0.0 | 0.0 | 0.00 | 0.00 | 0.00 | 42 | 1007.2 |
| 20260502051528 | 7 | 185 | 0.0 | 0.0 | 0.00 | 0.00 | 0.00 | 43 | 1007.1 |
| 20260502050031 | 7 | 185 | 0.0 | 0.0 | 0.00 | 0.00 | 0.00 | 42 | 1007.6 |
| 20260502044523 | 8 | 185 | 0.0 | 0.0 | 0.00 | 0.00 | 0.00 | 41 | 1006.9 |
| 20260502043023 | 8 | 185 | 0.0 | 0.0 | 0.00 | 0.00 | 0.00 | 37 | 1007.0 |
| 20260502041523 | 8 | 182 | 0.0 | 0.0 | 0.00 | 0.00 | 0.00 | 33 | 1006.8 |
| 20260502040022 | 9 | 182 | 0.0 | 0.0 | 0.00 | 0.00 | 0.00 | 34 | 1007.2 |
| 20260502034534 | 10 | 182 | 0.0 | 0.0 | 0.00 | 0.00 | 0.00 | 30 | 1006.9 |
| 20260502033021 | 10 | 182 | 0.0 | 0.0 | 0.00 | 0.00 | 0.00 | 32 | 1006.7 |
| 20260502031521 | 11 | 182 | 0.0 | 0.0 | 0.00 | 0.00 | 0.00 | 29 | 1006.1 |
| 20260502030021 | 11 | 182 | 0.0 | 0.0 | 0.00 | 0.00 | 0.00 | 29 | 1006.9 |
| 20260502024520 | 12 | 182 | 0.0 | 0.0 | 0.00 | 0.00 | 0.00 | 27 | 1006.6 |
| 20260502023020 | 12 | 182 | 0.0 | 0.0 | 0.00 | 0.00 | 0.00 | 27 | 1006.7 |
| 20260502021519 | 13 | 182 | 0.0 | 0.0 | 0.00 | 0.00 | 0.00 | 27 | 1006.1 |
| 20260502020019 | 13 | 182 | 0.0 | 0.0 | 0.00 | 0.00 | 0.00 | 26 | 1008.0 |
| 20260502014539 | 13 | 181 | 0.0 | 0.0 | 0.00 | 0.00 | 0.00 | 24 | 1008.0 |